Погода в Ставрополе

Поиск расширенной информации на нашем сайте:

Полезная информация:

Новости сайта



02.01.2020
Опубликован Долгосрочный прогноз погоды по городам России и ближнего зарубежья на январь 2020 года.
Карты: Прогноз на январь и февраль 2020 года, Сравнение прогнозируемой аномалии приземной температуры воздуха на январь 2020 года по разным моделям.




Погода в Ставрополе - сегодня

Время (UTC), дата Ветер
(°,м/с) 
Видим.   Явления Облачность Т
(°С)
Тd
(°С)
f(%) Тe
(°С)
Pmin
(гПа)
dP
(гПа)
Po
(мм)
O2
(г/м3)
Тmin Tmax R s Состояние
почвы
15 18.10.20 280 (З) 4{12}  20000 м    9/5 1000 м верхняя 
[Sc|Ci fib]
+24.8 +9.8 39 +27  1009.3  719  264    +28.9       
18 18.10.20 320 (СЗ) 20000 м    3/0 средняя 
[Ac trans]
+18.1 +7.1 49 +19  1015.5  0.6  723  272           
21 18.10.20 330 (СЗ) 20000 м    4/0 верхняя 
[Ci fib]
+17 +9 59 +18  1015.9  0.2  723  273           
00 19.10.20 тихо () {10}  20000 м    6/0 средняя 
[Ac trans]
+14.2 +9.1 71 +15  1017.2  0.7  723  275           
03 19.10.20 250 (З) 20000 м    9/0 средняя 
[Ac trans]
+11 +8.1 82 +11  1018.3  0.4  724  279  +10.9        сухая 
06 19.10.20 350 (С) 20000 м    8/0 средняя 
[Ac trans]
+17.1 +10.2 64 +20  1017.5  0.4  724  273           
09 19.10.20 100 (В) 20000 м    8/0 средняя, верхняя 
[Ac trans|Ci fib]
+20.2 +8.2 46 +20  1015.4  -1.5  723  270           
12 19.10.20 270 (З) 20000 м  слаб. дождь  10/5 1000 м средняя 
[Sc|Ac und]
+19.4 +9.3 52 +22  1015.1  -0.4  723  270           
15 19.10.20 210 (ЮЗ) 10 км  слаб. ливневой дождь  10/6 100 м кучево-дожд., средняя 
[Cb cap|Ac und]
+14.4 +13.6 95 +22  1016.2  0.2  723  274    +21.1     
18 19.10.20 270 (З) 9-13{13}  20000 м  {ливн. осадки, дождь}  10/4 600 м кучево-дожд., средняя 
[Cb calv|Ac und]
+12.7 +11.5 92 +15  1018.9  2.2  724  277           
21 19.10.20 280 (З) 8-12{14}  20000 м    10/5 300 м средняя 
[St|Ac und]
+11.9 +9.8 87 +12  1020.4  1.3  725  278           
00 20.10.20 320 (СЗ) 3{12}  20000 м    3/3 300 м 
[St]
+8.4 +7.3 93 +8  1023.7  2.4  727  283           
03 20.10.20 210 (ЮЗ) 20000 м    5/3 300 м средняя 
[St|Ac trans]
+7.4 +6.2 92 +7  1025.2  1.2  728  285  +7.4      влажная 
06 20.10.20 220 (ЮЗ) 20000 м    6/3 600 м средняя 
[Sc|Ac trans]
+10.3 +6.8 79 +10  1025.7  729  282  +5.6         
09 20.10.20 280 (З) 20000 м    6/3 600 м средняя 
[Sc|Ac trans]
+12.5 +5.6 63 +12  1024.8  -0.5  728  280           
12 20.10.20 300 (СЗ) 20000 м    8/5 600 м кучево-дожд., средняя 
[Cb calv|Ac trans]
+12.1 +7 71 +12  1024.5  -0.3  728  280           
15 20.10.20 310 (СЗ) 20000 м    5/3 1500 м средняя 
[Sc|Ac trans]
+9.8 +4.1 68 +11  1025.7  0.7  729  283    +14.5       
18 20.10.20 300 (СЗ) 20000 м    8/0 средняя 
[Ac trans]
+8.6 +4.1 73 +9  1026.7  0.7  729  284           
21 20.10.20 300 (СЗ) 20000 м    6/0 средняя 
[Ac trans]
+8 +3.5 73 +8  1027.5  0.7  730  285           
00 21.10.20 320 (СЗ) 20000 м    8/8 1000 м 
[Sc]
+7.3 +3.4 76 +7  1028.2  0.5  730  286           
03 21.10.20 260 (З) 20000 м    9/0 средняя 
[Ac trans]
+4.7 +1.4 79 +4  1029.9  731  289  +4.7         
06 21.10.20 290 (З) 20000 м    3/0 средняя 
[Ac trans]
+9.2 -0.9 49 +9  1030  0.9  732  285           
09 21.10.20 310 (СЗ) 20000 м    3/3 600 м 
[Sc]
+11.6 -0.3 44 +11  1029.4  0.1  732  283           
12 21.10.20 300 (СЗ) 20000 м    3/0 верхняя 
[Ci fib]
+12.9 -0.7 39 +13  1028  -1.1  731  281           
15 21.10.20 010 (С) 20000 м    3/0 верхняя 
[Ci fib]
+8.6 +1.1 59 +9  1028.4  -0.4  731  285    +13.1       
Время (UTC), дата Ветер
(°,м/с) 
Видим.   Явления Облачность Т
(°С)
Тd
(°С)
f(%) Тe
(°С)
Pmin
(гПа)
dP
(гПа)
Po
(мм)
O2
(г/м3)
Тmin Tmax R s Состояние
почвы

Для получения пояснительной информации подведите курсор к названию столбца.

ПОГОДА в Ставрополе - архив

Всё, что Вы хотите узнать о погоде в Ставрополе - удобно и подробно!

Выберите нужную дату (начиная с 1 января 2019* года) и нажмите кнопку "Найти".
Будут отображены архивные сводки погоды по пункту Ставрополь, начиная с указанной даты.


Отображать данные в формате CSV (для использования в таблицах Excel)


Внимание! Наш архив погоды предназначен исключительно для личного некоммерческого использования в познавательных целях. Если Вам необходимы официальные справки о состоянии погоды (для производственных, юридических, коммерческих и т.п. целей), обращайтесь в органы Росгидромета.

*Примечание: данная дата относится к архиву по метеостанциям СССР (Россия, СНГ, Балтия).
Архив по метеостанциям Зарубежной Европы и Азии (кроме Китая) хранится 10 дней, по другим регионам земного шара (Китай, Африка, Америка, Австралия, Океания) - 1 день.

Ставрополь - район местоположения метеостанции


Название, широта, долгота, высота метеостанции:
Ставрополь 45.1°ш. 42.1°д. 452 м над ур. моря [Российская Федерация]

Дополнительная информация

В oтличие oт бoльшинства пoгoдных сайтoв мы публикуем пoдрoбную метеoинфoрмацию в детальнoм прoфессиoнальнoм фoрмате.

Характеристики температуры и влажнoсти вoздуха измеряются на высoте 2 м в тени вдали oт зданий и деревьев.
Скoрoсть ветра измеряется на высoте 10 м (на урoвне рoста челoвека скoрoсть ветра ниже в 1.5-2 раза). Если метеoстанция нахoдится в гoрoде или в лесу, тo скoрoсть ветра занижена на 2-4 м/с пo сравнению с oткрытым местoм. Скoрoсть ветра над акватoриями крупных рек и oзёр, а также на вершинах хoлмoв на 2-5 м/с выше, чем в oбычных услoвиях.
Атмoсфернoе давление в разных тoчках местнoсти мoжет значительнo oтличаться oт давления на метеoстанции, в зависимoсти oт услoвий рельефа (при пoдъёме на 10 м давление пoнижается примернo на 1 мм рт.ст.).